Погода в Биколиме

Индия     15°35′10″N   73°57′19″E
В апреле 2022 года жителям России запретили посещать сайт meteo.paraplan.net по решению Генеральной прокуратуры. Аудитория сайта уменьшилась в 10 раз. Владельцы сайта не видят смысла в поддержке погодного сервера в таких условиях. Сайт будет закрыт в октябре.
темп.,
°C
ветер,
м/с
пор.,
м/с
влажн.,
%
обл.,
%
осадки,
мм/ч
давл.,
гПа
погр.,
м
25 сентября, вс
вс2523:30+23юв11935 0.7 101012
02:30+23юв1195100 0.1 100913
05:30+23вюв1195100 0.3 100916
08:30+24юв1190100 0.2 101188
11:30+28з347298 0.9 10101142
14:30+28з347054 0.3 1007846
17:30+27зсз357410 0.4 1008418
20:30+23с118894 0.0 101021
26 сентября, пн
пн2623:30+22всв1190100 0.0 101114
02:30+22св119224 0.0 100913
05:30+21всв11955 0.0 101013
08:30+25всв01815 0.0 1012292
11:30+29зсз346320 0.0 10111375
14:30+30зсз555972 0.0 10081572
17:30+27зсз467674 0.1 1008690
20:30+24ссз119159 0.0 101137
27 сентября, вт
вт2723:30+23с119619 0.0 101030
02:30+22св119718 0.0 100920
05:30+22в119710 0.0 100915
08:30+26в118223 0.0 1011360
11:30+30зсз336476 0.1 10101384
14:30+28зсз457387 1.9 10071123
17:30+26сз3686100 4.2 1008497
20:30+24сз1293100 0.4 101050
28 сентября, ср
ср2823:30+24сз129593 0.7 100948
02:30+23с119695 0.3 100832
05:30+23св1197100 0.5 100822
08:30+25с1189100 0.1 1010220
11:30+28зсз247999 2.1 1009879
14:30+27зсз4582100 4.3 1006901
17:30+25сз2589100 6.9 1007300
20:30+24ссз1292100 0.2 100847
29 сентября, чт
чт2923:30+24сз1193100 0.3 100830
02:30+23ссз119599 0.1 100722
05:30+23ссз119553 0.1 100716
08:30+26ссв018640 0.0 1009290
11:30+30зсз336327 0.1 10081371
14:30+28з456998 0.1 1006821
17:30+25зсз2583100 0.1 1007193
20:30+24с119014 0.1 100928